KB4QOR Weather Reports


Display with metric or nautical units.
time (UTC)temp
F
wind
direction
speed
MPH
gust
MPH
rain 1hr
in
rain 24hr
in
rain mn
in
humidity
%
barometer
mb
20260903130042 74 0 0.0 0.0 0.00 0.01 0.00 100 1019.1
20260903124538 74 0 0.0 0.0 0.00 0.01 0.00 100 1019.0
20260903123037 74 0 0.0 0.0 0.00 0.01 0.00 100 1019.0
20260903121537 74 0 0.0 0.0 0.00 0.01 0.00 100 1018.9
20260903120038 73 0 0.0 0.0 0.00 0.01 0.00 100 1018.9
20260903114540 74 0 0.0 0.0 0.00 0.01 0.00 100 1018.8
20260903113036 74 0 0.0 0.0 0.00 0.01 0.00 100 1018.7
20260903111536 74 0 0.0 0.0 0.00 0.01 0.00 100 1018.5
20260903110039 74 0 0.0 0.0 0.00 0.01 0.00 100 1018.4
20260903104536 74 0 0.0 0.0 0.00 0.01 0.00 100 1018.4
20260903103034 74 0 0.0 0.0 0.00 0.01 0.00 100 1018.3
20260903101544 74 0 0.0 0.0 0.00 0.01 0.00 100 1018.3
20260903100041 74 0 0.0 0.0 0.00 0.01 0.00 100 1018.3
20260903094541 75 0 0.0 0.0 0.00 0.01 0.00 100 1018.3
20260903093042 75 0 0.0 0.0 0.00 0.01 0.00 100 1018.1
20260903091540 75 0 0.0 0.0 0.00 0.01 0.00 100 1017.9
20260903090039 75 0 0.0 0.0 0.00 0.01 0.00 100 1017.9
20260903084537 75 0 0.0 0.0 0.00 0.01 0.00 100 1017.8
20260903083040 76 0 0.0 0.0 0.00 0.01 0.00 100 1017.7
20260903081535 76 0 0.0 0.0 0.00 0.01 0.00 100 1017.7
20260903080054 76 0 0.0 0.0 0.00 0.01 0.00 100 1017.7
20260903074535 76 0 0.0 0.0 0.00 0.01 0.00 100 1017.7
20260903073039 76 0 0.0 0.0 0.00 0.01 0.00 100 1017.7
20260903071538 77 0 0.0 0.0 0.00 0.01 0.00 100 1017.5
20260903070040 77 0 0.0 0.0 0.00 0.01 0.00 100 1017.6
20260903064535 77 0 0.0 0.0 0.00 0.01 0.00 100 1017.5
20260903063033 77 0 0.0 0.0 0.00 0.01 0.00 100 1017.5
20260903061537 78 0 0.0 0.0 0.00 0.01 0.00 100 1017.4
20260903060039 78 0 0.0 0.0 0.00 0.01 0.00 100 1017.4
20260903054535 78 0 0.0 0.0 0.00 0.01 0.00 100 1017.4
20260903053036 78 0 0.0 0.0 0.00 0.01 0.00 100 1017.5
20260903051545 79 0 0.0 0.0 0.00 0.01 0.00 100 1017.4
20260903050041 79 0 0.0 0.0 0.00 0.01 0.00 100 1017.4
20260903044538 79 0 0.0 0.0 0.00 0.01 0.00 100 1017.4
20260903043039 80 0 0.0 0.0 0.00 0.01 0.00 100 1017.4
20260903041540 80 0 0.0 0.0 0.00 0.01 0.00 100 1017.4
20260903040043 80 0 0.0 0.0 0.00 0.01 0.00 100 1017.3
20260903034535 81 0 0.0 0.0 0.00 0.01 0.01 100 1017.3
20260903033039 81 0 0.0 0.0 0.00 0.01 0.01 5 1017.4
20260903031537 82 0 0.0 0.0 0.00 0.01 0.01 11 1017.5
20260903030041 82 0 0.0 0.0 0.01 0.01 0.01 18 1017.5
20260903024540 83 0 0.0 0.0 0.01 0.01 0.01 22 1017.6
20260903023038 84 0 0.0 0.0 0.01 0.01 0.01 31 1017.6
20260903021541 85 0 0.0 0.0 0.01 0.01 0.01 38 1017.7
20260903020035 86 0 0.0 0.0 0.00 0.00 0.00 47 1017.8
20260903014535 87 0 0.0 0.0 0.00 0.00 0.00 55 1017.8
20260903013039 88 0 0.0 1.0 0.00 0.00 0.00 58 1017.7
20260903011536 89 0 0.0 0.0 0.00 0.00 0.00 60 1017.6
20260903010041 91 0 0.0 0.0 0.00 0.00 0.00 60 1017.5
20260903004536 93 0 0.0 0.0 0.00 0.00 0.00 62 1017.3
20260903003038 95 0 0.0 1.0 0.00 0.00 0.00 62 1017.3
20260903001556 96 0 0.0 0.0 0.00 0.00 0.00 62 1017.2
20260903000037 98 0 0.0 0.0 0.00 0.00 0.00 61 1017.3
20260902234544 98 0 0.0 0.0 0.00 0.00 0.00 59 1017.4
20260902233035 99 0 0.0 1.0 0.00 0.00 0.00 56 1017.4
20260902231534 99 0 0.0 2.0 0.00 0.00 0.00 52 1017.4
20260902230034 100 265 0.0 2.0 0.00 0.00 0.00 52 1017.3
20260902224547 101 0 0.0 2.0 0.00 0.00 0.00 54 1017.4
20260902223036 101 0 1.0 4.0 0.00 0.00 0.00 53 1017.4
20260902221543 102 265 0.0 4.0 0.00 0.00 0.00 57 1017.5
20260902220050 102 0 0.0 4.0 0.00 0.00 0.00 54 1017.6
20260902214535 103 0 0.0 6.0 0.00 0.00 0.00 55 1017.7
20260902213040 103 0 0.0 4.0 0.00 0.00 0.00 55 1017.6
20260902211535 102 0 0.0 6.0 0.00 0.00 0.00 54 1017.8
20260902210039 102 267 1.0 4.0 0.00 0.00 0.00 52 1017.9
20260902204538 102 84 1.0 7.0 0.00 0.00 0.00 53 1018.0
20260902203039 101 80 2.0 7.0 0.00 0.00 0.00 51 1018.3
20260902201535 101 0 1.0 7.0 0.00 0.00 0.00 54 1018.3
20260902200039 101 262 1.0 7.0 0.00 0.00 0.00 52 1018.4
20260902194541 101 272 0.0 4.0 0.00 0.00 0.00 52 1018.5
20260902193033 100 0 0.0 3.0 0.00 0.00 0.00 57 1018.6
20260902191550 99 288 1.0 6.0 0.00 0.00 0.00 53 1018.7
20260902190050 98 286 2.0 6.0 0.00 0.00 0.00 56 1019.0
20260902184534 97 265 0.0 6.0 0.00 0.00 0.00 57 1019.1
20260902183039 96 0 1.0 7.0 0.00 0.00 0.00 58 1019.3
20260902181533 94 0 1.0 4.0 0.00 0.00 0.00 60 1019.2
20260902180040 92 0 0.0 3.0 0.00 0.00 0.00 61 1019.3
20260902174537 90 258 2.0 7.0 0.00 0.00 0.00 62 1019.4
20260902173041 88 0 1.0 6.0 0.00 0.00 0.00 63 1019.6
20260902171600 87 253 1.0 7.0 0.00 0.00 0.00 61 1019.8
20260902170035 86 253 2.0 6.0 0.00 0.00 0.00 54 1019.9
20260902164534 85 0 1.0 5.0 0.00 0.00 0.00 41 1019.9
20260902163036 85 94 1.0 7.0 0.00 0.00 0.00 25 1020.3
20260902161546 84 292 1.0 7.0 0.00 0.00 0.00 100 1020.3
20260902160042 83 257 2.0 6.0 0.00 0.00 0.00 100 1020.2
20260902154537 82 0 1.0 4.0 0.00 0.00 0.00 100 1020.4
20260902153037 81 264 1.0 4.0 0.00 0.00 0.00 100 1020.3
20260902151536 80 0 0.0 4.0 0.00 0.00 0.00 100 1020.3
20260902150040 79 88 0.0 4.0 0.00 0.00 0.00 100 1020.3
20260902144535 78 81 1.0 4.0 0.00 0.00 0.00 100 1020.3
20260902143035 77 0 0.0 3.0 0.00 0.00 0.00 100 1020.4
20260902141546 77 278 0.0 2.0 0.00 0.00 0.00 100 1020.3
20260902140036 76 0 0.0 1.0 0.00 0.00 0.00 100 1020.5
20260902134539 75 0 0.0 2.0 0.00 0.00 0.00 100 1020.4
20260902133039 75 271 0.0 3.0 0.00 0.00 0.00 100 1020.4
20260902131535 74 0 0.0 3.0 0.00 0.00 0.00 100 1020.4